Regional Weather Roundup
Issued by NWS Cleveland, OH

Home | Current Version | Previous Version | Graphics & Text | Print | Product List | Glossary On
Versions: 1 2 3 4 5 6 7 8 9 10 11 12 13 14 15 16 17 18 19 20 21 22 23 24 25 26 27 28 29 30 31 32 33 34 35 36 37 38 39 40 41 42 43 44 45 46 47 48 49 50
000
ASUS41 KCLE 190612
RWRCLE
OHIO REGIONAL WEATHER ROUNDUP
NATIONAL WEATHER SERVICE WILMINGTON, OH
200 AM EDT TUE SEP 19 2017

NOTE: "FAIR" INDICATES FEW OR NO CLOUDS BELOW 12,000 FEET WITH NO
SIGNIFICANT WEATHER AND/OR OBSTRUCTIONS TO VISIBILITY.

OHZ001>008-015>018-024>027-034-035-043-044-190700-
   NORTHWEST OHIO

CITY           SKY/WX    TMP DP  RH WIND       PRES   REMARKS
DEFIANCE       CLOUDY    67  65  93 E6        30.01S FOG
FINDLAY        MOCLDY    70  66  87 CALM      30.00F FOG
TOLEDO EXPRESS CLOUDY    65  32  29 NE7       30.01F HAZE
TOLEDO EXEC    CLOUDY    68  66  93 NE6       30.02F
LIMA           FAIR      68  68 100 E3        30.00F FOG
$$

OHZ009>014-019>023-028>033-038-089-190700-
   NORTHEAST OHIO

CITY           SKY/WX    TMP DP  RH WIND       PRES   REMARKS
CLE-HOPKINS    MOCLDY    71  64  78 CALM      30.03F
CLE-LAKEFRONT  FAIR      69  62  78 SE3       30.00F
CUY CO. ARPT   NOT AVBL
LORAIN-ELYRIA  FAIR      65  60  84 CALM      30.02F HAZE
ASHTABULA      FAIR      62  62 100 SE5       30.04F
AKRON-CANTON   FAIR      67  60  78 CALM      30.04F
WOOSTER        FAIR      58  57  97 CALM      30.03F
MANSFIELD      MOCLDY    68  63  84 SE5       30.03F
YOUNGSTOWN     FAIR      62  62 100 SE5       30.04F
$$

OHZ042-051>053-060>062-070>072-077>081-190700-
  SOUTHWEST OHIO

CITY           SKY/WX    TMP DP  RH WIND       PRES   REMARKS
CINC-COVINGTON CLOUDY    70  66  87 S3        29.99F
CINC-LUNKEN    FOG       65  65 100 CALM      29.99F VSB 1/2
HAMILTON       FAIR      69  67  93 E3        30.00S
DAYTON         MOCLDY    66  66 100 CALM      30.02R FOG
WRIGHT-PAT AFB MOCLDY    66  66 100 CALM      30.00S
DAYTON GENERAL CLOUDY    70  64  81 S5        30.00S
WILMINGTON     FAIR      67  66  97 SE3       30.01S
$$

OHZ036-037-039>041-045>050-054>059-063>069-073>076-082>088-190700-
  CENTRAL AND SOUTHEAST OHIO

CITY           SKY/WX    TMP DP  RH WIND       PRES   REMARKS
COLUMBUS       CLOUDY    71  66  84 CALM      30.01S
OSU AIRPORT    CLOUDY    70  67  90 E3        30.01F
BOLTON FIELD   RAIN      68  67  96 SE3       30.01F
RICKENBACK AFB FAIR      69  66  92 CALM      30.00F
NEWARK         FAIR      67  65  93 CALM      30.01F FOG
MARION         CLOUDY    69  63  81 SE5       30.01F
LANCASTER      FAIR      66  65  96 CALM      30.02F
ZANESVILLE     FAIR      63  61  93 CALM      30.02F
NEW PHILLY     FAIR      61  61 100 CALM      30.03F FOG
$$




USA.gov is the U.S. government's official web portal to all federal, state and local government web resources and services.